[[{"header":{"parameterUnit":"m.s-1","parameterCategory":1,"la1":30.2991,"la2":30.254,"lo1":-89.0895,"lo2":-89.0444,"dy":0.0017,"dx":0.0017,"nx":28,"ny":28,"refTime":"2025-11-21T03:00:00:Z","depth":0,"parameterNumber":2,"parameterNumberName":"U-component_of_WINDS"},"data":[0,0,0,0,0,0,0,0,0,0,0,0,0,0,0,0,0,0,0,0,0,0,0,0,0,0,0,0,0,0,0,0,0,0,0,0,0,0,0,0,0,0,0,0,0,0,0,0,0,0,0,0,0,0,0,0,0,0,-2.5275,-2.5276,0,-2.5326,-2.5326,-2.5327,-2.5327,-2.5326,-2.5325,-2.5325,-2.5375,-2.5376,-2.5378,0,0,0,0,0,0,0,0,0,0,0,0,0,-2.5179,-2.5181,-2.5275,-2.5276,-2.5277,-2.5325,-2.5326,-2.5327,-2.5327,-2.5326,-2.5325,-2.5325,-2.5374,-2.5376,-2.5379,0,0,0,0,0,0,0,0,0,0,0,0,0,-2.5224,-2.5182,-2.5275,-2.5283,-2.5284,-2.5325,-2.5326,-2.5327,-2.5327,-2.5326,-2.5325,-2.5324,-2.5373,-2.5376,-2.5379,-2.5416,0,0,-2.5388,-2.5389,0,0,0,0,0,0,0,0,-2.5222,-2.5228,-2.5281,-2.5282,-2.5284,-2.5319,-2.5311,-2.5357,-2.5327,-2.5311,-2.5325,-2.5324,-2.5357,-2.5361,-2.5372,-2.5418,-2.542,-2.5388,-2.539,-2.5391,-2.5392,0,0,0,0,0,0,0,-2.5219,-2.5226,-2.5295,-2.5282,-2.5283,-2.5283,-2.5289,-2.5319,-2.5338,-2.5312,-2.5312,-2.5318,-2.5357,-2.537,-2.5374,-2.5421,-2.5388,-2.539,-2.5392,-2.5393,-2.5501,-2.5502,0,0,0,0,0,0,-2.5214,-2.5223,-2.5294,-2.5297,-2.525,-2.5286,-2.5292,-2.5309,-2.5338,-2.5342,-2.5319,-2.5318,-2.5365,-2.537,-2.5375,-2.542,-2.5391,-2.5394,-2.5395,-2.5499,-2.5501,-2.5502,0,0,0,0,0,0,-2.5212,-2.5221,-2.5292,-2.526,-2.5269,-2.5288,-2.5307,-2.531,-2.5322,-2.5343,-2.5347,-2.5328,-2.5365,-2.5371,-2.5406,-2.5422,-2.5395,-2.5398,-2.5498,-2.55,-2.5501,-2.5511,0,0,0,0,0,0,-2.5209,-2.522,-2.5234,-2.526,-2.5271,-2.5322,-2.5308,-2.5312,-2.5327,-2.5327,-2.5353,-2.5356,-2.5364,-2.5402,-2.5409,-2.5426,-2.54,-2.5497,-2.5499,-2.5501,-2.5509,-2.5513,-2.5516,0,0,0,0,0,-2.5206,-2.5234,-2.5235,-2.5243,-2.5289,-2.5322,-2.5328,-2.5338,-2.5329,-2.5343,-2.5357,-2.5355,-2.542,-2.5405,-2.5413,-2.5431,-2.5496,-2.5498,-2.5501,-2.5508,-2.5512,-2.5516,0,0,0,0,0,0,-2.5208,-2.5238,-2.5239,-2.5276,-2.5297,-2.5322,-2.5341,-2.5342,-2.5365,-2.5363,-2.5374,-2.538,-2.5414,-2.5427,-2.541,-2.5469,-2.5457,-2.5461,-2.5459,-2.5463,-2.5467,-2.5462,-2.5402,0,0,0,0,0,-2.5214,-2.5239,-2.5263,-2.5294,-2.5304,-2.5321,-2.5336,-2.5342,-2.5363,-2.5372,-2.5388,-2.5408,-2.5433,-2.5449,-2.5474,-2.5512,-2.5517,-2.5528,-2.5531,-2.5534,-2.5537,-2.5558,-2.5563,-2.551,-2.551,-2.551,0,0,-2.5224,-2.5243,-2.5258,-2.5295,-2.5312,-2.5337,-2.5328,-2.5355,-2.5374,-2.5375,-2.5409,-2.5422,-2.5446,-2.5483,-2.55,-2.5494,-2.5553,-2.5537,-2.5539,-2.5541,-2.5561,-2.5566,-2.557,-2.5512,-2.5512,-2.5511,0,0,-2.5256,-2.5273,-2.5301,-2.5318,-2.5344,-2.5355,-2.5362,-2.5387,-2.5396,-2.543,-2.5432,-2.5455,-2.5498,-2.5515,-2.5529,-2.5569,-2.5568,-2.5577,-2.5593,-2.5613,-2.5617,-2.5621,-2.5634,-2.5639,-2.558,-2.558,-2.558,0,-2.5265,-2.5303,-2.5315,-2.5342,-2.5358,-2.5362,-2.539,-2.5406,-2.5438,-2.5449,-2.5443,-2.5497,-2.5513,-2.5554,-2.5564,-2.5576,-2.5583,-2.5573,-2.5616,-2.562,-2.5623,-2.5636,-2.5641,-2.5581,-2.5581,-2.5581,-2.5581,0,-2.5313,-2.534,-2.5359,-2.5391,-2.5409,-2.5437,-2.5452,-2.547,-2.5475,-2.5486,-2.5521,-2.5542,-2.557,-2.5581,-2.5585,-2.5622,-2.5618,-2.5614,-2.5601,-2.5629,-2.5641,-2.5646,-2.5582,-2.5582,-2.5581,-2.5581,0,0,-2.5345,-2.5384,-2.5391,-2.5405,-2.5435,-2.5456,-2.5484,-2.5512,-2.5527,-2.555,-2.5573,-2.561,-2.5607,-2.5623,-2.563,-2.5648,-2.5678,-2.5642,-2.5642,-2.5647,-2.5719,-2.5721,-2.5726,-2.5678,-2.5679,-2.568,-2.5717,0,-2.5379,-2.5429,-2.5441,-2.5483,-2.5508,-2.5513,-2.5538,-2.5559,-2.5571,-2.5594,-2.5608,-2.5633,-2.5627,-2.5637,-2.5656,-2.567,-2.5692,-2.5668,-2.5699,-2.57,-2.5691,-2.5733,-2.5735,-2.5768,-2.5722,-2.5723,-2.5723,0,-2.5424,-2.5449,-2.5494,-2.5521,-2.5532,-2.5554,-2.5581,-2.5603,-2.5627,-2.5635,-2.5654,-2.5659,-2.5689,-2.5676,-2.5717,-2.57,-2.5714,-2.5723,-2.5725,-2.5727,-2.5712,-2.5734,-2.5779,-2.5783,-2.5731,-2.573,-2.573,0,-2.5442,-2.5486,-2.5519,-2.5532,-2.5564,-2.5579,-2.5593,-2.5617,-2.5633,-2.5657,-2.5668,-2.5695,-2.571,-2.5731,-2.5743,-2.5734,-2.5783,-2.5772,-2.5789,-2.5789,-2.5798,-2.5797,-2.5843,-2.581,-2.5809,-2.5809,-2.5809,0,-2.5477,-2.5504,-2.5527,-2.5547,-2.5578,-2.5592,-2.5622,-2.5636,-2.5657,-2.568,-2.5687,-2.5708,-2.5724,-2.5748,-2.5758,-2.579,-2.5797,-2.5803,-2.5805,-2.5802,-2.5801,-2.5809,-2.5807,-2.5811,-2.581,-2.581,-2.581,0,-2.5501,-2.5518,-2.5554,-2.5582,-2.559,-2.5611,-2.5635,-2.5655,-2.5669,-2.5697,-2.5705,-2.5726,-2.5754,-2.5769,-2.5805,-2.5812,-2.5847,-2.5848,-2.5838,-2.5839,-2.5855,-2.5853,-2.5908,-2.5915,-2.5878,-2.5878,-2.5879,0,-2.5521,-2.5543,-2.5574,-2.559,-2.5604,-2.563,-2.5647,-2.5663,-2.568,-2.571,-2.5726,-2.5755,-2.5778,-2.5823,-2.5841,-2.5868,-2.587,-2.5887,-2.5874,-2.5869,-2.5868,-2.5866,-2.5868,-2.5889,-2.5889,-2.5889,-2.589,0,-2.5556,-2.5563,-2.5588,-2.5616,-2.5637,-2.566,-2.5682,-2.5695,-2.5713,-2.5733,-2.5762,-2.5781,-2.5817,-2.5846,-2.5875,-2.5889,-2.5892,-2.5894,-2.5899,-2.5895,-2.5888,-2.5891,-2.5843,-2.5892,-2.5892,-2.5892,-2.5892,-2.5892,-2.5578,-2.5597,-2.5622,-2.5649,-2.5668,-2.5689,-2.5709,-2.5726,-2.575,-2.5781,-2.5789,-2.582,-2.5844,-2.5884,-2.5899,-2.5923,-2.592,-2.5928,-2.5929,-2.5931,-2.5931,-2.5886,-2.5929,-2.5929,-2.5929,-2.5929,-2.5929,0,-2.5611,-2.5628,-2.5654,-2.5685,-2.5707,-2.571,-2.5735,-2.5753,-2.578,-2.5803,-2.5826,-2.586,-2.5888,-2.5909,-2.5937,-2.5953,-2.5955,-2.596,-2.5958,-2.5961,-2.5933,-2.5925,-2.5957,-2.5957,-2.5957,-2.5957,-2.5957,-2.5957,-2.5631,-2.5663,-2.5674,-2.5716,-2.5733,-2.5763,-2.5777,-2.5797,-2.5815,-2.5853,-2.5876,-2.589,-2.5912,-2.5943,-2.5969,-2.5974,-2.5984,-2.5988,-2.5993,-2.5966,-2.5963,-2.596,-2.5952,-2.599,-2.599,-2.6019,-2.602,-2.602]},{"header":{"parameterUnit":"m.s-1","parameterCategory":1,"la1":30.2991,"la2":30.254,"lo1":-89.0895,"lo2":-89.0444,"dy":0.0017,"dx":0.0017,"nx":28,"ny":28,"refTime":"2025-11-21T03:00:00:Z","depth":0,"parameterNumber":3,"parameterNumberName":"V-component_of_WINDS"},"data":[0,0,0,0,0,0,0,0,0,0,0,0,0,0,0,0,0,0,0,0,0,0,0,0,0,0,0,0,0,0,0,0,0,0,0,0,0,0,0,0,0,0,0,0,0,0,0,0,0,0,0,0,0,0,0,0,0,0,3.3656,3.3657,0,3.3739,3.374,3.3741,3.377,3.377,3.3769,3.3769,3.3855,3.3858,3.386,0,0,0,0,0,0,0,0,0,0,0,0,0,3.3526,3.3528,3.3656,3.3657,3.3658,3.3739,3.374,3.3741,3.377,3.377,3.3769,3.3769,3.3855,3.3858,3.3861,0,0,0,0,0,0,0,0,0,0,0,0,0,3.3593,3.3529,3.3656,3.3682,3.3685,3.3739,3.374,3.3742,3.377,3.377,3.3769,3.3769,3.3854,3.3857,3.3861,3.3895,0,0,3.3873,3.3875,0,0,0,0,0,0,0,0,3.3589,3.3598,3.3677,3.3681,3.3684,3.3744,3.3726,3.3793,3.377,3.3738,3.3769,3.3769,3.3819,3.3825,3.3842,3.3899,3.3902,3.3873,3.3876,3.3877,3.3879,0,0,0,0,0,0,0,3.3585,3.3595,3.3689,3.3679,3.3683,3.3691,3.37,3.3739,3.378,3.3741,3.3743,3.3752,3.3821,3.3838,3.3844,3.3904,3.3873,3.3877,3.3879,3.3881,3.3996,3.3997,0,0,0,0,0,0,3.3575,3.359,3.3686,3.3692,3.3635,3.3694,3.3704,3.3725,3.378,3.3788,3.3753,3.3754,3.3832,3.384,3.3847,3.3893,3.3877,3.3881,3.3883,3.3995,3.3996,3.3997,0,0,0,0,0,0,3.3572,3.3583,3.3683,3.3642,3.3655,3.3697,3.372,3.3727,3.3745,3.3789,3.3797,3.3763,3.3832,3.3842,3.3884,3.3896,3.3883,3.3886,3.3995,3.3996,3.3997,3.3982,0,0,0,0,0,0,3.3568,3.3582,3.3594,3.3642,3.3657,3.3717,3.3721,3.3729,3.3751,3.3753,3.3801,3.3808,3.3832,3.3878,3.3887,3.3901,3.3889,3.3994,3.3995,3.3996,3.3982,3.3983,3.3984,0,0,0,0,0,3.3564,3.3586,3.3595,3.3606,3.3673,3.3717,3.3726,3.3753,3.3752,3.3766,3.3795,3.3806,3.3893,3.3882,3.3893,3.3908,3.3993,3.3995,3.3996,3.3982,3.3983,3.3984,0,0,0,0,0,0,3.3539,3.3593,3.3603,3.3641,3.3675,3.3722,3.3739,3.3753,3.3787,3.3787,3.382,3.3831,3.387,3.3893,3.3879,3.3946,3.3944,3.3948,3.3929,3.393,3.3931,3.3925,3.3893,0,0,0,0,0,3.3538,3.3569,3.3615,3.3644,3.3661,3.3697,3.3717,3.3736,3.3771,3.3786,3.3817,3.3852,3.3888,3.391,3.3945,3.3985,3.3998,3.4002,3.4003,3.4003,3.4007,3.4033,3.4036,3.4003,3.4003,3.4003,0,0,3.3537,3.357,3.3587,3.364,3.3668,3.3701,3.3709,3.3742,3.3767,3.3791,3.3832,3.3857,3.3898,3.394,3.396,3.3961,3.4019,3.4005,3.4005,3.4009,3.4035,3.4038,3.4041,3.4004,3.4003,3.4003,0,0,3.3551,3.3578,3.3607,3.3635,3.3678,3.3702,3.371,3.3756,3.3773,3.3816,3.3835,3.3866,3.3925,3.3955,3.3978,3.4007,3.402,3.4017,3.4022,3.4047,3.405,3.4053,3.4065,3.4069,3.402,3.402,3.402,0,3.3543,3.3592,3.362,3.3654,3.3678,3.3701,3.3733,3.3759,3.381,3.3827,3.3827,3.3904,3.3933,3.3984,3.3992,3.4008,3.402,3.4012,3.4047,3.405,3.4053,3.4065,3.407,3.4019,3.402,3.402,3.402,0,3.3582,3.3616,3.3635,3.3685,3.3711,3.3743,3.3778,3.3801,3.3818,3.3843,3.3888,3.3924,3.3968,3.3982,3.3998,3.4036,3.4035,3.404,3.404,3.4055,3.4068,3.4072,3.4019,3.4019,3.4019,3.4019,0,0,3.3581,3.3649,3.3655,3.368,3.373,3.3757,3.3792,3.3835,3.3856,3.3891,3.3922,3.3973,3.398,3.4006,3.4026,3.4048,3.4072,3.4051,3.4053,3.4056,3.412,3.4116,3.4121,3.4081,3.4082,3.4083,3.4117,0,3.3603,3.3665,3.3693,3.3742,3.3776,3.3801,3.3831,3.3866,3.3891,3.3924,3.3953,3.3989,3.3994,3.401,3.4033,3.4064,3.4085,3.4062,3.4112,3.4114,3.4102,3.4127,3.4123,3.4154,3.4122,3.4123,3.4123,0,3.3636,3.3673,3.3726,3.3775,3.379,3.3817,3.3861,3.3891,3.3933,3.395,3.398,3.4,3.4039,3.4036,3.4092,3.4075,3.4098,3.4116,3.4118,3.4125,3.412,3.4137,3.4164,3.4169,3.4131,3.413,3.413,0,3.3632,3.3695,3.3736,3.3756,3.3814,3.3832,3.3857,3.3898,3.3924,3.3962,3.398,3.4022,3.4046,3.4079,3.4111,3.4105,3.4165,3.4164,3.4183,3.4182,3.4195,3.4194,3.4228,3.4206,3.4206,3.4206,3.4206,0,3.3654,3.3686,3.3736,3.3761,3.3799,3.3832,3.3869,3.3896,3.3933,3.3965,3.3989,3.4019,3.4058,3.4094,3.4119,3.4164,3.4174,3.419,3.4197,3.4189,3.4187,3.4205,3.4204,3.4207,3.4207,3.4207,3.4207,0,3.3656,3.369,3.3737,3.3789,3.3803,3.3829,3.3874,3.39,3.3928,3.3969,3.3981,3.4024,3.4068,3.4103,3.4159,3.4177,3.4224,3.423,3.421,3.4214,3.4232,3.4231,3.428,3.4289,3.426,3.426,3.426,0,3.3668,3.3694,3.3749,3.3773,3.3798,3.3835,3.3862,3.3897,3.3924,3.3975,3.3996,3.4042,3.408,3.4149,3.4187,3.4231,3.424,3.4255,3.4247,3.424,3.4243,3.4242,3.4246,3.4256,3.4256,3.4256,3.4256,0,3.3687,3.3703,3.3741,3.3785,3.3817,3.3853,3.389,3.3909,3.3951,3.398,3.4026,3.4056,3.4115,3.4161,3.421,3.4238,3.4255,3.4258,3.4265,3.4258,3.4246,3.4256,3.4214,3.4257,3.4257,3.4257,3.4257,3.4257,3.3696,3.3721,3.3765,3.3807,3.3839,3.3874,3.3903,3.3935,3.3973,3.4024,3.4043,3.409,3.4135,3.4203,3.4231,3.427,3.4271,3.4281,3.4284,3.4286,3.4287,3.4239,3.4279,3.4279,3.4279,3.4279,3.4279,0,3.3717,3.3747,3.3786,3.3838,3.3872,3.3885,3.3928,3.3956,3.3997,3.4037,3.4075,3.413,3.4175,3.4217,3.4266,3.4289,3.4299,3.4301,3.43,3.4307,3.4281,3.4271,3.4293,3.4293,3.4293,3.4293,3.4293,3.4293,3.3732,3.3777,3.3799,3.3861,3.3891,3.3938,3.3962,3.3996,3.4028,3.4088,3.4126,3.4154,3.4196,3.4248,3.4291,3.4303,3.432,3.4321,3.4335,3.431,3.4308,3.4306,3.4297,3.4324,3.4324,3.4358,3.4358,3.4358]}]]